Theta_e
308 309 309 308 308 308 308 308 307 306 305 304 303 303 303 303 304 304 305 306 306 306 307 307 306 306 307 307 308 309 311 314 316 318 320 322 323 324 324 325 326 327 327 327 327 328 328 328 328 328 328 328 328 328 328 328 328 329 328 328 328 327 327
309 309 309 309 309 308 308 308 307 306 306 305 304 303 303 303 303 304 304 304 305 304 304 305 305 304 305 305 305 306 306 308 309 311 313 316 317 319 320 321 322 324 325 325 325 326 327 327 327 328 328 328 327 327 327 328 328 328 328 327 327 326 325
309 309 309 310 309 308 308 308 308 307 307 306 305 304 304 304 304 304 304 304 304 304 304 304 304 304 304 304 304 304 304 305 306 307 308 310 311 313 315 316 317 318 320 322 323 324 325 325 325 326 326 326 326 326 325 326 327 328 328 327 326 326 325
309 309 309 310 310 309 308 308 308 308 307 306 306 305 305 305 305 305 305 305 305 305 305 304 304 304 304 304 304 303 303 303 303 304 305 306 306 308 309 310 312 313 314 316 317 319 321 322 323 324 324 324 323 323 322 322 323 324 324 324 322 321 322
309 309 309 310 310 310 309 308 308 308 308 307 307 306 306 306 306 306 306 306 305 305 305 304 304 305 305 305 305 305 304 304 303 303 303 303 303 304 305 306 307 309 310 311 312 314 317 319 320 321 322 322 322 321 320 317 316 317 317 318 317 317 318
309 310 309 310 310 310 310 309 309 308 308 307 307 307 306 306 306 306 306 305 305 305 305 305 305 305 305 305 305 305 305 305 304 304 303 302 302 302 303 303 304 305 306 308 308 309 312 314 317 319 320 320 320 320 319 317 314 313 313 315 316 318 319
309 310 310 310 310 310 310 310 310 309 308 308 307 307 307 306 306 306 306 305 305 305 305 305 305 305 305 305 305 305 305 304 304 304 304 303 303 302 302 302 302 302 303 304 305 306 307 310 313 315 315 315 315 316 318 319 318 315 315 317 316 318 321
309 309 310 310 310 310 310 311 311 310 309 308 308 307 307 306 306 306 306 305 305 305 305 305 305 305 305 305 305 304 304 304 304 304 303 303 303 303 302 302 302 302 301 302 302 303 304 305 307 309 311 312 313 313 314 315 315 313 312 314 313 315 320
309 309 309 310 311 311 311 311 311 311 310 310 309 308 307 307 306 306 306 305 305 305 305 305 305 305 305 304 304 304 304 304 304 303 303 303 303 303 302 303 302 302 302 302 301 301 302 302 303 305 307 309 312 313 313 312 312 312 311 310 311 311 315
310 309 309 310 311 311 311 311 311 311 311 311 310 309 308 307 307 306 306 306 305 305 305 305 305 305 305 304 304 304 304 304 304 304 303 303 303 302 302 302 302 302 302 302 302 302 302 301 302 303 305 307 309 311 313 313 313 313 312 309 308 310 312
311 310 310 311 311 312 312 311 311 312 312 312 311 310 309 308 307 306 306 306 306 305 305 304 304 304 304 304 304 304 304 304 304 304 303 303 303 302 302 302 302 302 302 302 302 302 302 302 302 302 303 305 306 308 310 312 311 309 308 307 308 312 312
312 311 311 311 311 312 312 312 312 312 312 312 312 311 310 309 308 307 306 306 306 305 305 305 304 304 303 304 304 304 304 304 304 304 303 303 303 303 302 302 302 302 302 301 302 302 302 302 302 302 302 303 305 306 307 309 309 306 305 306 307 309 309
315 314 313 312 312 313 313 313 313 312 312 312 312 312 311 310 309 308 307 306 306 305 305 305 304 304 303 303 303 303 304 304 303 303 303 303 303 303 302 302 302 302 302 301 301 301 301 301 301 301 302 302 303 305 306 307 307 305 305 305 305 305 305
318 317 315 315 314 314 314 315 314 313 312 312 312 312 312 311 310 309 308 307 306 306 305 305 305 304 303 303 303 303 303 304 304 304 303 303 303 302 301 301 301 301 301 301 300 300 300 300 300 300 301 301 302 304 305 305 305 304 304 305 305 304 305
318 318 318 317 316 316 316 316 316 315 313 312 313 313 313 312 311 310 309 308 308 307 306 305 305 305 304 303 302 302 303 303 304 303 303 303 303 302 301 300 300 300 300 300 300 300 299 299 299 299 300 300 302 304 304 303 303 303 303 303 304 304 304
317 318 318 318 318 317 317 317 317 317 315 313 313 313 312 312 312 311 310 309 308 308 306 306 305 305 304 303 302 302 302 303 303 303 303 303 302 301 300 300 300 299 300 299 299 299 299 298 298 298 298 299 301 303 303 303 303 303 303 303 303 303 304
317 317 318 319 319 318 318 318 318 318 317 315 313 313 313 312 312 311 310 309 308 308 307 306 305 305 305 304 302 302 302 303 303 303 302 302 301 300 299 299 299 299 298 298 298 298 297 298 297 297 297 298 299 300 302 302 303 303 303 303 303 304 304
319 317 318 318 318 318 318 318 318 318 318 317 315 314 313 313 312 311 310 309 309 309 308 306 306 305 305 304 303 302 302 303 303 303 302 301 300 299 298 298 297 297 297 296 296 296 296 296 296 296 296 297 298 298 299 301 302 302 302 302 303 303 303
321 320 319 318 317 318 318 319 319 319 319 318 316 314 314 313 313 312 310 309 309 309 308 307 306 305 305 305 304 302 302 302 303 303 302 301 299 298 297 297 296 296 296 296 296 295 295 295 295 295 296 296 297 298 298 299 300 300 300 301 301 302 302
321 321 321 320 319 319 319 319 319 319 319 318 316 315 315 314 313 312 311 310 309 309 309 307 306 305 305 304 303 302 302 302 303 302 302 300 298 297 296 296 296 296 297 297 297 297 296 296 297 297 298 298 298 298 298 298 299 299 299 300 300 301 301
320 321 321 321 321 321 321 320 320 319 319 318 316 315 315 314 313 313 312 310 310 310 309 308 306 305 305 304 303 302 302 302 302 302 301 299 298 296 296 296 296 296 296 297 297 298 297 297 298 298 299 299 299 300 299 299 299 299 299 299 300 300 301
316 319 320 320 321 321 321 321 320 320 319 318 317 316 315 313 312 312 311 310 310 310 309 308 306 305 304 303 302 302 302 302 302 300 299 298 296 296 295 295 295 295 296 296 296 297 297 297 297 298 298 298 298 299 299 299 299 299 299 300 300 300 300
312 315 318 320 320 321 321 321 321 320 319 318 317 316 315 313 312 312 311 310 310 310 308 307 305 304 304 303 302 302 302 301 300 298 297 296 295 295 294 294 294 295 295 295 295 296 296 297 297 297 297 297 297 298 298 299 299 299 299 299 299 299 300
309 312 314 317 319 320 320 320 320 320 319 318 317 316 315 312 312 312 311 310 310 309 307 306 305 304 303 302 302 301 300 298 297 295 295 294 294 294 294 294 294 294 294 295 295 295 295 296 296 297 297 297 297 297 297 297 298 298 299 299 299 299 299
307 308 311 314 317 319 319 320 320 319 319 317 316 315 314 312 312 311 311 309 308 307 306 305 304 303 302 302 300 298 296 295 294 294 293 293 293 293 293 293 293 293 294 294 295 295 295 296 296 296 297 297 297 297 297 297 297 297 297 298 298 298 299
305 306 307 310 314 318 319 319 319 319 318 317 316 314 313 312 311 311 310 308 307 306 305 304 303 302 301 299 297 295 294 293 293 293 293 293 293 293 292 293 293 293 294 294 295 295 295 296 296 296 296 297 297 297 298 297 297 296 296 296 296 297 298
304 304 305 307 311 315 317 318 318 318 318 316 315 314 313 312 311 310 309 307 306 305 304 303 302 301 299 296 294 294 293 292 292 292 293 292 292 292 292 292 293 293 294 294 294 295 295 296 296 296 296 297 297 297 297 297 297 297 297 296 296 296 297
303 303 304 305 309 313 315 317 317 317 317 315 314 313 313 312 310 309 308 306 305 304 303 303 301 298 296 294 294 293 293 292 292 292 292 292 292 292 292 292 293 293 294 294 295 295 295 296 296 296 296 297 297 297 297 297 297 297 296 297 296 297 297
303 303 303 304 308 312 314 315 316 317 316 315 313 312 312 310 309 308 306 305 304 304 303 301 298 296 295 295 294 293 292 292 292 292 292 291 291 291 292 292 293 294 294 294 295 295 295 296 296 296 296 296 296 297 297 297 297 296 296 296 296 296 296
302 303 303 304 307 311 313 315 316 316 315 314 312 311 311 309 308 306 305 304 304 304 302 299 296 296 296 295 294 293 292 292 292 292 291 291 291 292 292 293 293 293 294 295 295 295 295 295 295 295 295 295 295 295 296 296 296 296 296 296 296 295 295
302 303 303 303 306 310 313 315 316 315 314 313 312 311 310 308 306 305 305 305 305 302 299 297 296 296 295 294 294 293 293 292 292 291 291 291 291 292 292 293 293 294 294 294 294 294 294 294 294 294 294 294 294 294 294 295 295 295 295 295 295 295 294
302 303 303 303 304 309 312 314 315 314 313 311 310 309 307 306 305 305 305 304 302 299 297 296 295 295 295 294 294 293 293 292 292 291 291 291 291 292 292 293 293 294 294 295 294 294 294 293 293 293 293 292 292 292 293 293 293 293 293 294 294 294 294
301 303 304 303 305 309 313 314 314 313 311 310 309 307 305 305 305 305 303 301 299 297 296 295 295 295 295 295 294 293 292 292 292 291 291 291 291 291 291 292 292 293 294 294 294 294 293 293 292 292 292 291 291 292 292 292 292 292 292 292 292 292 292
302 304 304 304 307 311 314 314 314 312 310 309 307 306 305 305 304 302 300 298 297 296 296 296 296 296 295 294 293 292 292 292 292 291 291 291 291 291 291 291 292 293 293 294 294 293 293 293 292 292 291 291 292 292 292 291 290 290 290 290 290 290 291
303 304 305 306 309 312 313 313 312 311 309 307 306 305 305 303 302 300 298 297 296 296 297 297 296 295 293 293 293 293 292 292 291 291 290 290 290 290 291 292 292 293 293 293 293 293 292 292 292 292 292 292 292 292 291 290 290 290 290 290 290 290 290
305 305 306 308 311 312 312 312 310 309 307 306 306 305 303 301 300 298 297 297 297 296 296 295 294 293 293 293 292 292 292 291 290 290 290 290 290 291 292 292 292 292 292 292 292 292 292 292 291 291 291 291 291 291 291 291 291 291 291 291 291 291 291
306 306 307 310 311 312 311 310 308 307 306 306 304 302 300 298 298 298 298 297 296 295 293 293 292 292 292 292 292 291 290 290 290 290 290 291 292 293 292 292 292 292 292 292 292 292 292 291 291 291 291 291 291 291 291 291 292 292 292 292 292 292 293
Wind_Speed
7 5 5 4 5 5 6 7 7 7 8 9 9 9 9 8 7 6 6 5 5 4 4 4 3 3 3 3 3 3 4 4 5 5 5 6 5 5 5 6 7 8 8 9 9 8 8 9 9 9 10 12 11 11 11 11 11 12 11 10 10 10 10
9 7 5 4 4 4 5 5 6 6 7 8 9 9 9 9 8 8 8 7 7 7 6 6 5 4 2 0 1 1 2 3 4 4 5 6 6 6 6 6 6 6 6 7 7 7 6 8 9 8 10 13 15 15 14 14 15 15 15 14 14 14 15
11 9 8 6 5 5 4 4 5 5 5 7 7 8 8 8 7 7 6 6 6 6 6 6 5 4 3 2 2 2 2 3 3 4 5 6 7 7 7 7 7 7 6 6 7 7 6 7 8 9 9 10 12 15 16 16 17 18 18 18 18 19 19
12 11 10 9 7 6 5 5 5 5 4 5 6 6 6 6 6 5 4 4 4 4 5 5 5 5 4 4 4 3 3 3 4 5 6 6 7 8 8 8 8 8 8 7 8 8 7 7 8 9 9 9 11 13 14 15 17 18 19 19 19 19 19
13 12 11 10 9 7 6 5 5 5 5 4 4 5 5 5 4 4 3 2 2 3 3 4 4 5 5 6 6 6 5 4 3 4 5 7 9 9 10 10 9 9 9 9 10 11 10 9 9 10 10 10 12 13 15 17 18 18 18 19 18 18 18
14 13 11 10 10 9 8 6 5 4 5 4 4 4 4 4 4 3 2 1 1 1 1 2 3 4 5 6 6 6 6 6 6 5 4 5 6 8 10 10 11 11 11 11 11 12 13 12 11 11 11 12 14 15 16 18 20 20 20 19 18 17 17
15 14 13 12 11 11 10 8 5 4 5 5 5 5 4 4 4 3 2 2 2 1 1 1 2 3 4 5 6 6 7 7 8 8 7 7 6 6 7 9 11 12 13 13 13 13 14 15 14 12 12 15 18 19 17 17 19 20 19 18 18 17 15
17 15 14 13 12 12 12 10 7 6 6 6 6 6 6 5 4 4 3 3 3 3 2 1 0 1 3 5 6 7 8 8 9 9 10 9 9 9 8 8 8 10 12 13 14 15 15 16 16 15 14 14 17 19 19 18 20 23 23 21 22 21 16
18 17 16 15 14 14 13 12 10 8 7 7 7 7 7 6 6 5 4 4 5 4 4 3 2 2 3 5 7 8 8 9 10 11 11 11 11 11 11 11 10 10 11 12 13 14 15 16 17 17 15 12 13 15 16 18 20 20 21 20 21 22 18
19 19 18 17 16 15 15 14 12 11 10 9 8 8 8 8 7 7 6 6 6 6 5 5 4 4 5 6 7 8 9 10 11 11 12 13 13 13 13 13 12 12 13 13 13 14 15 16 16 17 15 12 12 13 14 17 20 17 17 20 19 19 19
21 21 20 20 19 18 17 16 15 14 13 12 10 10 9 9 9 9 8 8 8 7 6 6 6 6 6 7 8 9 10 11 12 12 12 13 14 14 15 14 14 14 14 14 14 15 15 15 16 17 17 14 13 14 14 16 22 23 21 23 20 15 18
22 22 22 22 22 21 19 19 18 17 16 15 14 12 11 11 10 10 10 10 9 8 7 7 7 7 8 8 8 9 10 11 12 13 13 14 14 14 15 15 16 15 15 14 14 14 14 15 15 16 17 17 15 14 15 16 23 28 26 25 24 21 23
22 24 24 24 25 24 22 21 20 19 18 18 17 16 14 13 12 11 12 11 11 10 9 8 8 9 9 10 10 10 10 11 12 14 15 16 17 17 17 17 17 18 18 18 16 15 14 14 14 14 16 17 15 13 14 15 23 31 30 28 30 29 30
24 24 25 26 26 26 25 23 22 22 21 20 20 19 17 15 14 13 14 14 13 12 12 11 11 11 11 12 12 12 11 11 12 13 15 17 18 19 19 19 20 20 20 21 20 19 18 17 16 14 14 16 15 12 13 14 21 31 32 29 31 32 31
27 24 25 28 28 28 27 26 25 24 24 23 22 21 20 18 17 16 16 16 15 15 14 13 13 13 14 14 14 15 14 13 13 13 15 16 18 18 19 20 20 21 21 21 21 20 20 19 19 17 16 16 13 10 12 14 19 27 32 30 30 31 32
33 29 27 28 30 30 29 28 27 27 26 25 24 23 22 20 19 19 19 18 18 17 16 15 15 15 16 16 17 17 17 16 15 15 16 17 18 18 19 20 21 22 22 21 21 20 20 19 19 19 18 18 15 11 10 13 16 21 28 30 29 28 29
37 37 34 32 30 30 31 31 31 30 29 28 27 26 24 23 22 22 22 22 21 19 18 17 17 17 18 19 20 19 19 19 18 18 18 19 19 20 21 22 22 22 22 21 21 20 20 20 19 19 19 19 19 17 13 13 15 17 21 26 27 25 25
33 38 39 38 35 32 32 32 33 33 32 31 30 28 27 26 26 25 25 24 23 21 20 19 19 20 21 22 22 21 21 20 20 19 20 21 21 22 23 23 22 21 21 21 20 20 19 19 19 20 20 19 19 20 18 16 16 17 19 24 26 23 23
26 31 36 39 39 38 36 34 34 35 35 35 33 31 29 29 28 28 27 26 25 23 22 21 21 23 23 23 23 22 22 22 22 21 22 23 23 24 23 23 22 21 20 20 19 19 19 19 19 20 20 21 20 21 22 21 20 22 23 26 28 28 28
20 24 27 32 36 39 40 39 37 36 38 39 36 31 30 31 30 29 28 27 27 25 24 24 24 25 24 23 23 23 23 23 22 22 23 24 25 24 23 22 21 20 20 19 19 19 19 19 20 19 19 19 19 20 22 23 23 24 26 27 29 30 31
17 19 22 25 29 33 35 37 38 37 37 37 35 33 33 34 32 30 29 28 28 27 26 26 26 25 24 23 23 24 23 23 22 23 24 25 24 24 23 22 21 21 20 20 20 19 19 20 20 19 18 16 15 16 19 21 22 23 24 26 28 29 30
15 17 20 22 24 26 27 29 32 33 33 34 35 36 36 34 31 31 31 30 30 29 28 27 26 25 24 23 24 23 23 23 23 23 24 24 24 24 23 23 23 22 22 22 22 21 21 21 21 22 22 20 17 15 15 16 17 18 20 23 25 27 29
17 17 19 20 21 21 21 22 24 27 30 32 35 37 37 34 32 33 34 33 32 31 28 26 24 23 23 23 23 22 22 22 22 22 23 23 24 24 24 25 24 24 24 24 24 24 23 23 23 24 24 23 21 20 19 17 16 17 18 20 21 23 25
20 20 20 20 19 19 20 21 22 25 28 31 34 37 37 34 33 34 35 33 31 29 26 23 22 22 21 21 21 20 20 20 21 21 22 23 24 25 26 26 26 26 27 26 27 27 26 26 26 26 26 26 25 25 25 23 22 20 19 20 21 20 21
22 22 22 21 19 18 19 21 23 26 28 31 34 36 35 33 33 35 34 32 29 25 22 21 20 20 19 19 18 18 18 19 20 21 22 23 24 25 26 27 28 28 28 28 28 28 29 29 29 29 29 29 29 29 29 28 28 27 24 24 24 23 23
23 24 24 23 21 18 18 20 23 25 28 31 35 37 34 33 34 35 33 30 26 22 20 19 19 18 18 17 16 16 17 18 20 21 22 24 25 26 27 28 29 29 29 29 29 29 30 31 31 32 32 33 33 33 32 32 31 31 30 29 28 27 24
22 23 24 25 24 20 19 20 22 25 28 32 36 37 35 34 36 34 31 27 23 20 19 18 17 16 15 14 15 16 17 19 20 22 23 24 25 26 27 28 30 31 31 30 30 30 30 31 33 34 34 34 35 34 35 33 30 29 30 30 31 30 25
21 23 24 25 25 22 20 20 22 25 28 32 35 37 36 36 35 32 28 24 20 18 16 14 13 13 12 13 15 17 18 20 21 23 24 25 27 28 29 29 31 31 32 31 30 29 30 31 33 34 35 36 36 36 36 34 29 25 24 25 26 26 23
21 22 24 25 25 22 19 19 21 23 27 31 35 37 36 35 33 29 25 21 18 15 13 12 11 11 12 14 16 18 20 22 23 24 26 27 29 30 31 31 31 32 32 32 31 30 30 31 32 34 36 36 37 37 37 36 34 32 31 30 28 27 25
22 23 24 25 25 22 18 17 19 22 27 32 37 38 36 34 30 25 21 17 14 12 12 10 10 11 12 14 17 19 21 23 25 27 28 30 31 32 32 31 31 32 33 32 32 31 30 30 32 34 35 35 35 35 35 34 36 37 37 38 37 37 36
23 23 23 24 24 21 17 17 20 23 28 34 39 39 36 32 27 21 17 14 13 13 12 11 10 11 13 16 18 20 22 24 26 28 30 32 34 34 34 34 32 33 33 33 32 31 30 31 32 32 33 33 33 33 33 33 35 36 36 37 37 36 35
23 23 23 24 23 20 16 17 21 25 30 36 38 35 30 26 22 19 16 14 13 12 11 10 11 12 13 16 19 21 23 25 26 29 31 34 36 36 37 37 37 37 36 34 32 32 30 30 31 32 31 30 30 31 31 32 32 31 31 31 31 29 28
23 22 23 23 22 18 16 17 22 26 31 36 34 28 23 21 19 17 14 12 11 9 9 9 10 11 13 17 19 21 23 24 26 29 31 34 37 38 38 40 41 40 39 37 35 34 32 30 30 31 31 30 31 32 31 30 29 29 29 30 29 29 29
21 21 22 22 19 17 16 19 23 28 33 34 30 26 23 20 16 12 10 8 7 7 7 8 9 12 15 17 19 20 22 24 26 29 32 35 38 39 41 42 41 38 38 38 37 35 33 31 30 31 32 33 34 34 32 31 29 28 27 27 27 28 29
20 21 22 20 16 16 18 20 24 31 35 32 28 26 23 18 14 11 8 6 6 6 7 9 11 13 15 16 18 20 22 24 27 29 33 36 38 40 42 41 37 36 38 40 37 35 34 31 30 31 32 32 32 31 29 29 28 27 27 26 25 25 26
19 21 21 18 16 18 20 23 29 34 34 31 28 24 19 14 12 9 7 6 7 8 8 10 12 13 14 17 19 22 24 26 28 30 34 36 38 40 40 37 36 38 40 39 36 34 32 30 29 29 28 27 27 26 26 27 29 29 30 30 29 28 28
19 20 18 17 19 22 24 27 32 33 30 26 22 17 13 11 9 8 7 7 7 8 9 10 12 14 17 19 21 23 24 26 28 30 33 36 37 39 39 38 38 39 38 36 34 33 31 29 28 26 24 23 23 23 25 27 28 29 30 31 32 33 33
Wind_Direction
173 170 158 150 134 120 111 104 100 97 95 94 94 90 87 86 89 93 96 101 108 117 120 124 142 167 207 223 227 229 223 216 212 212 214 216 221 226 227 237 251 258 262 263 263 263 264 264 259 253 252 252 256 264 268 267 266 264 261 257 259 265 268
184 189 188 185 168 143 126 114 108 103 101 103 103 100 96 91 89 87 85 87 88 90 93 93 98 106 111 197 271 268 259 250 243 237 235 234 235 235 233 233 239 250 261 269 268 266 264 266 270 267 262 259 257 257 260 263 264 265 266 266 271 279 281
190 199 202 208 204 181 157 138 126 117 112 113 113 111 106 100 94 88 82 79 78 78 78 79 78 77 71 49 13 348 325 302 289 277 266 260 257 255 253 251 253 253 257 263 264 266 268 270 274 274 274 276 268 259 256 256 258 260 263 269 276 281 283
197 206 210 215 219 207 186 169 152 143 134 129 129 125 120 114 106 99 90 78 67 61 62 66 70 70 66 59 43 27 5 329 302 289 282 277 274 274 273 271 270 266 261 263 265 267 267 268 275 278 282 287 280 273 266 259 257 259 263 268 274 277 279
204 212 217 222 227 224 211 198 180 166 163 161 156 149 141 136 128 120 109 91 70 56 60 65 68 69 64 57 47 39 30 17 351 310 288 277 272 273 275 274 276 274 269 266 267 268 269 269 273 279 284 287 283 280 277 271 267 266 267 272 277 278 279
208 215 221 228 233 235 230 220 206 187 182 184 186 186 177 166 158 149 137 132 116 86 78 65 57 56 54 46 35 26 20 17 12 1 340 307 283 272 270 269 269 270 270 269 268 267 269 271 274 277 279 279 280 281 283 282 278 274 272 275 278 278 279
211 214 219 225 231 236 237 233 222 205 198 201 205 208 209 205 197 184 179 193 202 203 191 119 48 38 35 28 19 12 8 5 4 2 357 347 332 310 289 277 270 268 267 267 268 267 268 269 271 276 280 280 280 281 283 284 281 279 276 275 275 276 278
214 216 220 225 230 235 237 235 228 217 212 215 216 218 220 221 221 217 214 225 233 234 227 215 259 5 8 360 356 358 360 360 359 356 354 349 344 338 328 313 295 282 274 269 267 265 265 266 267 272 280 286 289 287 284 281 280 279 278 277 275 275 276
220 223 225 229 234 238 240 239 237 232 226 225 225 223 222 222 225 229 230 237 247 254 258 258 268 299 327 334 340 347 350 352 351 350 349 348 345 341 336 331 323 312 301 291 283 276 271 269 268 269 273 281 289 292 292 289 285 283 281 278 274 273 274
226 230 232 235 239 242 244 242 241 240 237 233 231 228 225 224 224 227 232 240 249 259 267 275 278 284 301 315 324 333 338 341 343 344 344 344 344 342 339 335 330 324 319 313 306 299 290 283 278 275 273 273 275 282 292 293 288 284 281 278 277 277 274
231 234 237 240 243 245 246 244 241 240 241 240 238 234 230 227 226 228 233 239 248 255 264 272 276 277 285 297 309 319 326 331 335 337 339 340 341 341 340 338 335 330 325 320 314 309 304 298 290 284 279 275 271 271 276 283 284 283 282 284 285 281 271
239 238 239 242 244 245 245 245 244 242 242 243 243 240 239 236 234 235 237 242 248 255 262 267 271 273 276 284 295 306 316 324 329 332 334 335 337 338 338 337 336 333 330 325 319 312 307 302 297 291 285 279 275 271 269 271 278 281 282 284 284 280 278
247 244 243 243 244 244 243 243 244 243 242 243 244 244 244 244 243 242 243 248 253 258 266 271 275 277 277 279 286 295 306 315 322 327 330 332 334 335 336 335 334 332 332 329 326 320 313 306 298 292 286 281 278 275 273 270 274 279 281 282 283 284 285
247 246 245 244 242 242 242 241 241 241 241 241 243 244 245 245 246 246 247 251 256 261 267 275 281 286 284 281 282 287 294 303 311 319 324 327 329 331 332 332 331 330 329 328 327 326 322 319 312 303 292 283 277 273 273 272 275 281 284 284 284 285 285
244 246 246 245 243 242 242 241 240 239 240 240 240 242 244 246 247 247 248 250 253 258 264 272 280 285 286 285 284 285 288 294 301 309 315 319 322 324 324 325 324 324 323 321 321 320 318 318 317 313 306 296 286 275 273 274 275 280 284 286 286 286 287
243 246 247 246 244 244 244 244 242 240 239 239 239 239 241 243 246 247 248 249 251 254 259 267 275 280 282 283 283 284 288 293 300 308 313 315 316 317 317 318 318 317 316 315 313 312 311 311 310 310 308 305 299 288 278 277 278 280 285 288 289 288 288
243 245 248 249 248 248 247 247 246 243 241 240 239 238 239 240 243 246 247 248 249 252 256 262 268 273 276 278 279 282 287 293 302 309 312 313 313 314 314 314 314 313 312 311 310 309 307 307 307 306 305 304 303 299 291 284 282 283 286 289 291 291 290
244 245 247 249 251 251 251 251 250 247 244 242 240 238 237 238 240 242 244 247 249 251 254 258 263 267 271 273 276 280 284 290 297 304 308 310 312 314 314 314 314 314 313 311 310 308 306 304 304 303 302 301 301 300 297 292 288 287 288 290 292 293 293
244 246 248 250 252 253 254 255 254 252 247 243 240 238 238 237 239 240 241 243 246 248 251 254 259 264 267 271 275 278 280 285 291 299 305 308 312 314 315 316 316 316 315 314 312 309 307 304 302 300 299 298 297 296 295 294 292 291 292 292 293 295 296
246 249 252 254 255 256 257 257 257 256 250 244 239 239 240 239 238 239 239 240 242 245 247 251 256 261 266 270 273 276 278 282 289 297 302 307 311 314 316 317 317 316 314 312 311 308 305 303 301 298 295 294 294 293 293 292 291 290 290 291 291 293 295
251 250 253 255 257 258 260 261 261 261 256 249 243 241 241 239 236 235 235 236 239 241 244 248 253 258 263 267 271 274 278 283 290 296 300 304 309 312 314 316 316 315 313 310 308 305 301 299 297 294 291 288 285 286 288 289 288 286 286 286 288 289 290
268 258 253 253 256 258 261 264 266 266 263 255 246 241 238 236 235 235 233 233 235 238 241 246 251 256 260 264 268 272 278 284 291 296 300 303 307 310 312 314 314 314 312 310 307 303 299 297 294 291 290 288 282 278 278 280 280 279 278 280 282 285 287
282 274 263 256 255 257 259 260 261 264 261 253 244 240 235 232 233 235 234 233 234 237 241 246 251 255 259 263 267 273 281 287 292 297 300 303 305 308 310 311 312 312 311 310 307 304 301 298 294 291 289 286 282 278 274 272 269 269 270 271 273 277 279
282 281 276 267 259 257 258 256 256 258 256 248 242 238 233 229 229 231 232 234 235 237 240 245 250 255 260 265 271 279 285 290 294 297 301 303 305 306 307 308 309 309 309 309 307 304 303 300 296 292 289 285 282 279 276 273 270 266 265 265 265 266 269
283 282 282 279 270 261 261 261 258 256 253 246 238 232 228 226 225 226 229 232 234 235 239 244 251 257 265 272 278 284 289 293 297 300 301 303 305 305 306 307 307 308 308 308 306 305 304 301 298 295 292 288 285 281 279 276 274 271 268 266 265 263 263
284 283 283 283 277 267 261 261 258 256 253 246 236 227 224 223 223 224 227 230 231 233 237 243 251 260 269 277 283 289 294 297 299 301 303 303 304 305 306 307 308 308 309 308 307 307 304 301 299 296 293 291 288 285 283 279 276 273 270 267 265 264 263
282 280 281 282 279 270 262 259 258 255 251 243 232 223 221 221 220 221 224 226 229 233 236 241 251 261 271 279 287 294 298 299 300 302 303 304 305 306 307 309 309 309 309 308 308 307 304 301 298 295 292 290 288 287 285 282 280 277 273 269 266 265 263
279 275 275 277 276 272 265 261 259 254 248 240 229 221 219 218 216 217 219 223 226 231 237 246 256 263 272 282 292 299 300 301 302 304 304 305 306 307 309 310 310 310 309 308 307 305 302 299 296 294 291 289 287 285 283 281 278 275 272 269 268 267 265
277 272 270 271 271 269 265 262 260 255 246 234 224 219 217 214 212 213 216 218 222 231 242 253 259 265 275 287 297 302 303 303 305 305 306 306 307 308 309 311 311 311 309 308 307 306 303 299 296 293 290 288 286 284 282 280 277 275 272 269 268 266 263
275 271 268 267 267 266 263 260 259 254 243 229 220 216 213 209 209 212 213 214 219 231 241 247 255 267 282 293 300 303 304 305 305 305 306 306 306 308 309 310 311 311 310 310 309 307 304 300 296 293 291 289 287 284 282 281 279 278 276 274 273 272 270
273 270 266 265 265 262 258 256 255 251 241 228 217 211 207 204 203 204 204 208 218 230 238 246 260 275 288 297 302 304 304 304 305 306 306 307 307 308 309 309 310 310 309 309 309 307 305 301 298 295 292 291 288 285 284 283 282 280 279 278 277 277 276
271 267 263 263 261 256 253 256 255 248 233 219 208 202 199 197 193 190 193 205 221 235 249 264 276 286 294 299 301 302 303 304 305 306 307 306 307 308 310 312 313 311 309 309 308 305 304 301 298 296 293 290 286 285 286 286 285 283 281 279 278 275 273
268 263 260 258 255 251 249 253 254 241 220 207 202 198 193 190 186 186 197 214 230 246 262 277 286 291 293 295 298 300 301 302 304 305 304 304 305 308 311 313 313 311 310 310 309 307 305 303 300 298 294 288 284 285 288 287 283 281 279 277 276 273 270
263 259 256 252 246 242 244 250 247 227 207 199 196 191 185 183 185 194 207 221 240 258 272 279 282 284 288 292 295 298 299 299 300 300 300 301 304 307 310 311 310 309 309 310 310 309 307 305 301 296 290 286 285 287 287 285 281 279 277 275 275 274 273
256 251 247 243 236 235 241 244 233 214 199 191 186 181 178 181 190 199 203 214 236 253 266 272 274 279 286 291 292 293 293 294 295 296 298 301 304 306 308 307 306 306 308 310 311 310 308 305 300 294 290 288 288 287 285 283 280 278 276 275 275 274 273
247 242 239 233 227 231 236 230 214 200 189 181 177 175 175 183 193 196 194 208 233 248 261 271 276 280 284 284 284 285 288 291 295 298 299 301 304 306 306 305 305 306 308 310 310 309 307 305 300 296 293 290 287 284 282 279 276 275 275 275 274 273 272
239 236 230 225 226 229 224 209 195 185 176 172 171 169 171 176 179 180 189 209 235 250 259 267 272 275 278 280 284 289 293 297 300 301 301 302 304 305 305 304 305 307 309 311 311 312 311 309 306 301 296 290 284 281 279 276 275 275 276 276 275 274 273